Time,TemperatureF,DewpointF,PressureIn,WindDirection,WindDirectionDegrees,WindSpeedMPH,WindSpeedGustMPH,Humidity,HourlyPrecipIn,Conditions,Clouds,dailyrainin,SoftwareType,DateUTC
2013-10-03 00:13:00,44.0,-99.9,-100.00,North,-999,-999.0,-999.0,-999,0.00,,,0.00,,2013-10-03 06:13:00,
2013-10-03 00:22:00,44.0,-99.9,-100.00,North,-999,-999.0,-999.0,-999,0.00,,,0.00,,2013-10-03 06:22:00,
2013-10-03 00:32:00,44.0,-99.9,-100.00,North,-999,-999.0,-999.0,-999,0.00,,,0.00,,2013-10-03 06:32:00,
2013-10-03 00:42:00,44.0,-99.9,-100.00,North,-999,-999.0,-999.0,-999,0.00,,,0.00,,2013-10-03 06:42:00,
2013-10-03 01:12:00,41.0,-99.9,-100.00,North,-999,-999.0,-999.0,-999,0.00,,,-99.99,,2013-10-03 07:12:00,
2013-10-03 01:22:00,41.0,-99.9,-100.00,North,-999,-999.0,-999.0,-999,0.00,,,-99.99,,2013-10-03 07:22:00,
2013-10-03 01:32:00,41.0,-99.9,-100.00,North,-999,-999.0,-999.0,-999,0.00,,,-99.99,,2013-10-03 07:32:00,
2013-10-03 01:42:00,41.0,-99.9,-100.00,North,-999,-999.0,-999.0,-999,0.00,,,-99.99,,2013-10-03 07:42:00,
2013-10-03 02:12:00,40.0,-99.9,-100.00,North,-999,-999.0,-999.0,-999,0.00,,,0.00,,2013-10-03 08:12:00,
2013-10-03 02:23:00,40.0,-99.9,-100.00,North,-999,-999.0,-999.0,-999,0.00,,,0.00,,2013-10-03 08:23:00,
2013-10-03 02:32:00,40.0,-99.9,-100.00,North,-999,-999.0,-999.0,-999,0.00,,,0.00,,2013-10-03 08:32:00,
2013-10-03 02:42:00,40.0,-99.9,-100.00,North,-999,-999.0,-999.0,-999,0.00,,,0.00,,2013-10-03 08:42:00,
2013-10-03 03:12:00,38.0,-99.9,-100.00,North,-999,-999.0,-999.0,-999,0.03,,,-99.99,,2013-10-03 09:12:00,
2013-10-03 03:22:00,38.0,-99.9,-100.00,North,-999,-999.0,-999.0,-999,0.03,,,-99.99,,2013-10-03 09:22:00,
2013-10-03 03:33:00,38.0,-99.9,-100.00,North,-999,-999.0,-999.0,-999,0.03,,,-99.99,,2013-10-03 09:33:00,
2013-10-03 03:43:00,38.0,-99.9,-100.00,North,-999,-999.0,-999.0,-999,0.03,,,-99.99,,2013-10-03 09:43:00,
2013-10-03 04:13:00,38.0,-99.9,-100.00,North,-999,-999.0,-999.0,-999,0.01,,,-99.99,,2013-10-03 10:13:00,
2013-10-03 04:23:00,38.0,-99.9,-100.00,North,-999,-999.0,-999.0,-999,0.01,,,-99.99,,2013-10-03 10:23:00,
2013-10-03 04:33:00,38.0,-99.9,-100.00,North,-999,-999.0,-999.0,-999,0.01,,,-99.99,,2013-10-03 10:33:00,
2013-10-03 04:43:00,38.0,-99.9,-100.00,North,-999,-999.0,-999.0,-999,0.01,,,-99.99,,2013-10-03 10:43:00,
2013-10-03 05:12:00,38.0,-99.9,-100.00,North,-999,-999.0,-999.0,-999,0.00,,,0.04,,2013-10-03 11:12:00,
2013-10-03 05:23:00,38.0,-99.9,-100.00,North,-999,-999.0,-999.0,-999,0.00,,,0.04,,2013-10-03 11:23:00,
2013-10-03 05:33:00,38.0,-99.9,-100.00,North,-999,-999.0,-999.0,-999,0.00,,,0.04,,2013-10-03 11:33:00,
2013-10-03 05:42:00,38.0,-99.9,-100.00,North,-999,-999.0,-999.0,-999,0.00,,,0.04,,2013-10-03 11:42:00,
2013-10-03 06:12:00,40.0,-99.9,-100.00,North,-999,-999.0,-999.0,-999,0.01,,,0.05,,2013-10-03 12:12:00,
2013-10-03 06:22:00,40.0,-99.9,-100.00,North,-999,-999.0,-999.0,-999,0.01,,,0.05,,2013-10-03 12:22:00,
2013-10-03 06:32:00,40.0,-99.9,-100.00,North,-999,-999.0,-999.0,-999,0.01,,,0.05,,2013-10-03 12:32:00,
2013-10-03 06:42:00,40.0,-99.9,-100.00,North,-999,-999.0,-999.0,-999,0.01,,,0.05,,2013-10-03 12:42:00,
2013-10-03 07:12:00,37.0,-99.9,-100.00,North,-999,-999.0,-999.0,-999,0.01,,,0.06,,2013-10-03 13:12:00,
2013-10-03 07:22:00,37.0,-99.9,-100.00,North,-999,-999.0,-999.0,-999,0.01,,,0.06,,2013-10-03 13:22:00,
2013-10-03 07:32:00,37.0,-99.9,-100.00,North,-999,-999.0,-999.0,-999,0.01,,,0.06,,2013-10-03 13:32:00,
2013-10-03 07:42:00,37.0,-99.9,-100.00,North,-999,-999.0,-999.0,-999,0.01,,,0.06,,2013-10-03 13:42:00,
2013-10-03 08:11:00,36.0,-99.9,-100.00,North,-999,-999.0,-999.0,-999,0.00,,,0.06,,2013-10-03 14:11:00,
2013-10-03 08:22:00,36.0,-99.9,-100.00,North,-999,-999.0,-999.0,-999,0.00,,,0.06,,2013-10-03 14:22:00,
2013-10-03 08:32:00,36.0,-99.9,-100.00,North,-999,-999.0,-999.0,-999,0.00,,,0.06,,2013-10-03 14:32:00,
2013-10-03 08:43:00,36.0,-99.9,-100.00,North,-999,-999.0,-999.0,-999,0.00,,,0.06,,2013-10-03 14:43:00,
2013-10-03 09:12:00,37.0,-99.9,-100.00,North,-999,-999.0,-999.0,-999,0.00,,,0.06,,2013-10-03 15:12:00,
2013-10-03 09:22:00,37.0,-99.9,-100.00,North,-999,-999.0,-999.0,-999,0.00,,,0.06,,2013-10-03 15:22:00,
2013-10-03 09:33:00,37.0,-99.9,-100.00,North,-999,-999.0,-999.0,-999,0.00,,,0.06,,2013-10-03 15:33:00,
2013-10-03 09:44:00,37.0,-99.9,-100.00,North,-999,-999.0,-999.0,-999,0.00,,,0.06,,2013-10-03 15:44:00,
2013-10-03 10:13:00,39.0,-99.9,-100.00,North,-999,-999.0,-999.0,-999,0.07,,,0.13,,2013-10-03 16:13:00,
2013-10-03 10:23:00,39.0,-99.9,-100.00,North,-999,-999.0,-999.0,-999,0.07,,,0.13,,2013-10-03 16:23:00,
2013-10-03 10:33:00,39.0,-99.9,-100.00,North,-999,-999.0,-999.0,-999,0.07,,,0.13,,2013-10-03 16:33:00,
2013-10-03 10:43:00,39.0,-99.9,-100.00,North,-999,-999.0,-999.0,-999,0.07,,,0.13,,2013-10-03 16:43:00,
2013-10-03 11:22:00,39.0,-99.9,-100.00,North,-999,-999.0,-999.0,-999,0.00,,,0.13,,2013-10-03 17:22:00,
2013-10-03 11:33:00,39.0,-99.9,-100.00,North,-999,-999.0,-999.0,-999,0.00,,,0.13,,2013-10-03 17:33:00,
2013-10-03 11:42:00,39.0,-99.9,-100.00,North,-999,-999.0,-999.0,-999,0.00,,,0.13,,2013-10-03 17:42:00,
2013-10-03 12:12:00,40.0,-99.9,-100.00,North,-999,-999.0,-999.0,-999,0.00,,,0.13,,2013-10-03 18:12:00,
2013-10-03 12:22:00,40.0,-99.9,-100.00,North,-999,-999.0,-999.0,-999,0.00,,,0.13,,2013-10-03 18:22:00,
2013-10-03 12:32:00,40.0,-99.9,-100.00,North,-999,-999.0,-999.0,-999,0.00,,,0.13,,2013-10-03 18:32:00,
2013-10-03 12:42:00,40.0,-99.9,-100.00,North,-999,-999.0,-999.0,-999,0.00,,,0.13,,2013-10-03 18:42:00,
2013-10-03 13:11:00,40.0,-99.9,-100.00,North,-999,-999.0,-999.0,-999,0.00,,,0.13,,2013-10-03 19:11:00,
2013-10-03 13:22:00,40.0,-99.9,-100.00,North,-999,-999.0,-999.0,-999,0.00,,,0.13,,2013-10-03 19:22:00,
2013-10-03 13:32:00,40.0,-99.9,-100.00,North,-999,-999.0,-999.0,-999,0.00,,,0.13,,2013-10-03 19:32:00,
2013-10-03 13:42:00,40.0,-99.9,-100.00,North,-999,-999.0,-999.0,-999,0.00,,,0.13,,2013-10-03 19:42:00,
2013-10-03 15:22:00,39.0,-99.9,-100.00,North,-999,-999.0,-999.0,-999,0.00,,,0.13,,2013-10-03 21:22:00,
2013-10-03 15:34:00,39.0,-99.9,-100.00,North,-999,-999.0,-999.0,-999,0.00,,,0.13,,2013-10-03 21:34:00,
2013-10-03 15:43:00,39.0,-99.9,-100.00,North,-999,-999.0,-999.0,-999,0.00,,,0.13,,2013-10-03 21:43:00,
2013-10-03 16:13:00,38.0,-99.9,-100.00,North,-999,-999.0,-999.0,-999,0.00,,,0.13,,2013-10-03 22:13:00,
2013-10-03 16:23:00,38.0,-99.9,-100.00,North,-999,-999.0,-999.0,-999,0.00,,,0.13,,2013-10-03 22:23:00,
2013-10-03 16:33:00,38.0,-99.9,-100.00,North,-999,-999.0,-999.0,-999,0.00,,,0.13,,2013-10-03 22:33:00,
2013-10-03 16:43:00,38.0,-99.9,-100.00,North,-999,-999.0,-999.0,-999,0.00,,,0.13,,2013-10-03 22:43:00,
2013-10-03 17:13:00,39.0,-99.9,-100.00,North,-999,-999.0,-999.0,-999,0.00,,,-99.99,,2013-10-03 23:13:00,
2013-10-03 17:22:00,39.0,-99.9,-100.00,North,-999,-999.0,-999.0,-999,0.00,,,-99.99,,2013-10-03 23:22:00,
2013-10-03 17:34:00,39.0,-99.9,-100.00,North,-999,-999.0,-999.0,-999,0.00,,,-99.99,,2013-10-03 23:34:00,
2013-10-03 17:43:00,39.0,-99.9,-100.00,North,-999,-999.0,-999.0,-999,0.00,,,-99.99,,2013-10-03 23:43:00,
2013-10-03 18:12:00,38.0,-99.9,-100.00,North,-999,-999.0,-999.0,-999,0.00,,,0.13,,2013-10-04 00:12:00,
2013-10-03 18:22:00,38.0,-99.9,-100.00,North,-999,-999.0,-999.0,-999,0.00,,,0.13,,2013-10-04 00:22:00,
2013-10-03 18:32:00,38.0,-99.9,-100.00,North,-999,-999.0,-999.0,-999,0.00,,,0.13,,2013-10-04 00:32:00,
2013-10-03 18:42:00,38.0,-99.9,-100.00,North,-999,-999.0,-999.0,-999,0.00,,,0.13,,2013-10-04 00:42:00,
2013-10-03 19:12:00,38.0,-99.9,-100.00,North,-999,-999.0,-999.0,-999,0.00,,,0.13,,2013-10-04 01:12:00,
2013-10-03 19:22:00,38.0,-99.9,-100.00,North,-999,-999.0,-999.0,-999,0.00,,,0.13,,2013-10-04 01:22:00,
2013-10-03 19:32:00,38.0,-99.9,-100.00,North,-999,-999.0,-999.0,-999,0.00,,,0.13,,2013-10-04 01:32:00,
2013-10-03 19:42:00,38.0,-99.9,-100.00,North,-999,-999.0,-999.0,-999,0.00,,,0.13,,2013-10-04 01:42:00,
2013-10-03 20:12:00,38.0,-99.9,-100.00,North,-999,-999.0,-999.0,-999,0.02,,,-99.99,,2013-10-04 02:12:00,
2013-10-03 20:22:00,38.0,-99.9,-100.00,North,-999,-999.0,-999.0,-999,0.02,,,-99.99,,2013-10-04 02:22:00,
2013-10-03 20:33:00,38.0,-99.9,-100.00,North,-999,-999.0,-999.0,-999,0.02,,,-99.99,,2013-10-04 02:33:00,
2013-10-03 20:43:00,38.0,-99.9,-100.00,North,-999,-999.0,-999.0,-999,0.02,,,-99.99,,2013-10-04 02:43:00,
2013-10-03 22:45:00,39.0,-99.9,-100.00,North,-999,-999.0,-999.0,-999,-99.99,,,0.18,,2013-10-04 04:45:00,
2013-10-03 23:33:00,39.0,-99.9,-100.00,North,-999,-999.0,-999.0,-999,-99.99,,,0.18,,2013-10-04 05:33:00,
2013-10-03 23:42:00,39.0,-99.9,-100.00,North,-999,-999.0,-999.0,-999,-99.99,,,0.18,,2013-10-04 05:42:00,
2013-10-03 23:45:00,39.0,-99.9,-100.00,North,-999,-999.0,-999.0,-999,0.00,,,0.18,,2013-10-04 05:45:00,